Location: Bilsen
(53.7722°N, 9.8765°E)
Time: 23:11:02
(UTC+00:00)

CZ-4C R/B - Pass Details

Date: 18 February 2020
Orbit: 641 x 1361 km, 63.4° (Epoch: 05 April)

Event Time Altitude Azimuth Distance (km) Brightness Sun altitude
Exits shadow 02:17:00 31° 79° (E) 1,471 3.8 -37.2°
Drops below altitude 10° 02:20:42 10° 54° (NE) 2,663 5.5 -36.8°
Sets 02:23:37 0° 48° (NE) 3,737 6.5 -36.4°
